Regional Weather Roundup
Issued by NWS

Home | Current Version | Previous Version | Text Only | Print | Product List | Glossary Off
Versions: 1 2 3 4 5 6 7 8 9 10 11 12 13 14 15 16 17 18 19 20 21 22 23 24 25 26 27 28 29 30 31 32 33 34 35 36 37 38 39 40 41 42 43 44

566
ASUS44 KJAN 041810
RWRMS

MISSISSIPPI HOURLY WEATHER ROUNDUP
NATIONAL WEATHER SERVICE JACKSON MS
1200 PM CST WED MAR 04 2015

NOTE: "FAIR: INDICATES FEW OR NO CLOUDS BELOW 12,000 FEET WITH NO
SIGNIFICANT WEATHER AND/OR OBSTRUCTIONS TO VISIBILITY.

MSZ001>002-007>008-010>013-018>021-025>028-034>036-041900-
NORTHWEST MISSISSIPPI

CITY           SKY/WX    TMP DP  RH WIND       PRES   REMARKS
CLARKSDALE     CLOUDY    43  43 100 N22G31    29.96S
CLEVELAND      CLOUDY    61  57  88 N26       29.88S
GREENWOOD      CLOUDY    76  64  66 SW25      29.88F
6HR MIN TEMP:  66; 6HR MAX TEMP:  76;

GREENVILLE     CLOUDY    73  66  78 S15       29.86F
6HR MIN TEMP:  64; 6HR MAX TEMP:  73; 6HR PCP:  0.11;

OLIVE BRANCH   RAIN      39  39 100 N17G23    29.96R FOG     WCI  30
OXFORD         CLOUDY    61  59  94 NW14      29.89R
TUNICA         SNOW      37  37 100 N25G33    29.97F VSB 1/2 WCI  26
$$

MSZ003>006-009-014>017-022>024-029>033-037>039-041900-
NORTHEAST MISSISSIPPI

CITY           SKY/WX    TMP DP  RH WIND       PRES   REMARKS
COLUMBUS AFB   FAIR      77  64  65 SW18G24   29.89F
6HR MIN TEMP:  65; 6HR MAX TEMP:  77;

CORINTH        RAIN      57  55  94 N9G17     29.87S
GOLDN TRIANGLE CLOUDY    75  64  69 S18G24    29.90F
STARKVILLE     MOCLDY    75  63  64 S10G20    29.90F
TUPELO         CLOUDY    69  65  86 W5        29.86F
6HR MIN TEMP:  64; 6HR MAX TEMP:  69; 6HR PCP:  0.16;

$$

MSZ040-058-041900-
CENTRAL MISSISSIPPI

CITY           SKY/WX    TMP DP  RH WIND       PRES   REMARKS
JACKSON INTL   PTSUNNY   79  64  60 S21G31    29.92F
6HR MIN TEMP:  66; 6HR MAX TEMP:  79;

JACKSON HAWKNS FAIR      79  64  60 S17G25    29.92F
6HR MIN TEMP:  65; 6HR MAX TEMP:  80;

MERIDIAN KEY   PTSUNNY   75  65  70 S16G23    29.96F
6HR MIN TEMP:  65; 6HR MAX TEMP:  76; 6HR PCP:  0.04;

MERIDIAN NAS   PTSUNNY   77  64  64 S10G22    29.95F
6HR MIN TEMP:  65; 6HR MAX TEMP:  77; 6HR PCP:  0.01;

VICKSBURG      FAIR      80  65  59 SW13G20   29.91F
6HR MIN TEMP:  65; 6HR MAX TEMP:  80;

$$

MSZ059>079-041900-
SOUTH MISSISSIPPI

CITY           SKY/WX    TMP DP  RH WIND       PRES   REMARKS
BROOKHAVEN       N/A     75  73  94 S12G18    29.97F
HATTIESBURG    PTSUNNY   80  66  62 S9        29.98F
6HR MIN TEMP:  68; 6HR MAX TEMP:  80; 6HR PCP:  0.01;

MCCOMB         FAIR      77  66  68 S13G24    29.97F
6HR MIN TEMP:  67; 6HR MAX TEMP:  77; 6HR PCP: TRACE;

NATCHEZ        PTSUNNY   79  66  65 S14G22    29.95F
6HR MIN TEMP:  66; 6HR MAX TEMP:  79;

PINE BELT      FAIR      75  66  73 S10G16    29.99F
6HR MIN TEMP:  64; 6HR MAX TEMP:  75;

$$

MSZ080>082-041900-
COASTAL MISSISSIPPI

CITY           SKY/WX    TMP DP  RH WIND       PRES   REMARKS
BAY ST LOUIS   LGT RAIN  72  66  83 S12       30.01F
BILOXI         CLOUDY    71  69  95 S9        30.00F
6HR MIN TEMP:  65; 6HR MAX TEMP:  74; 6HR PCP: TRACE;

PASCAGOULA     PTSUNNY   78  69  73 S16G24    30.00F
6HR MIN TEMP:  66; 6HR MAX TEMP:  79;

GULFPORT       CLOUDY    71  67  87 S10       30.00F
6HR MIN TEMP:  63; 6HR MAX TEMP:  73;

$$



USA.gov is the U.S. government's official web portal to all federal, state and local government web resources and services.